| time (UTC) | temp F | wind direction | speed knots | gust knots | rain 1hr in | rain 24hr in | rain mn in | humidity % | barometer mb |
| 20260503020536 | 57 | 217 | 2.6 | 3.5 | 0.00 | 0.34 | 0.02 | 94 | 1013.7 |
| 20260503015615 | 57 | 165 | 0.9 | 1.7 | 0.00 | 0.34 | 0.02 | 94 | 1013.5 |
| 20260503014533 | 57 | 173 | 1.7 | 2.6 | 0.00 | 0.34 | 0.02 | 94 | 1013.3 |
| 20260503013532 | 57 | 197 | 1.7 | 2.6 | 0.00 | 0.34 | 0.02 | 94 | 1013.4 |
| 20260503012531 | 57 | 108 | 0.9 | 3.5 | 0.00 | 0.34 | 0.02 | 94 | 1013.4 |
| 20260503011530 | 57 | 176 | 2.6 | 4.3 | 0.00 | 0.34 | 0.02 | 94 | 1013.3 |
| 20260503010528 | 57 | 189 | 1.7 | 3.5 | 0.00 | 0.34 | 0.02 | 94 | 1013.5 |
| 20260503005607 | 57 | 0.0 | 0.9 | 0.00 | 0.34 | 0.02 | 94 | 1013.6 | |
| 20260503004526 | 57 | 0.0 | 0.9 | 0.00 | 0.34 | 0.02 | 93 | 1013.4 | |
| 20260503003525 | 57 | 0.0 | 0.9 | 0.00 | 0.34 | 0.02 | 93 | 1013.5 | |
| 20260503002524 | 57 | 0.0 | 0.0 | 0.00 | 0.34 | 0.02 | 93 | 1013.7 | |
| 20260503001602 | 57 | 0.0 | 1.7 | 0.00 | 0.34 | 0.02 | 93 | 1013.5 | |
| 20260503000521 | 57 | 151 | 0.9 | 1.7 | 0.00 | 0.34 | 0.02 | 93 | 1013.8 |
| 20260502235519 | 57 | 0.0 | 0.9 | 0.00 | 0.34 | 0.02 | 93 | 1014.0 | |
| 20260502234518 | 57 | 116 | 1.7 | 1.7 | 0.00 | 0.34 | 0.02 | 93 | 1014.0 |
| 20260502233517 | 57 | 0.0 | 0.0 | 0.00 | 0.34 | 0.02 | 92 | 1014.4 | |
| 20260502232515 | 57 | 181 | 1.7 | 1.7 | 0.00 | 0.34 | 0.02 | 92 | 1014.3 |
| 20260502231514 | 57 | 0.0 | 0.9 | 0.01 | 0.34 | 0.02 | 92 | 1014.3 | |
| 20260502230513 | 57 | 0.0 | 0.9 | 0.00 | 0.33 | 0.01 | 92 | 1014.1 | |
| 20260502225511 | 57 | 129 | 1.7 | 2.6 | 0.00 | 0.33 | 0.00 | 92 | 1014.6 |
| 20260502224510 | 57 | 129 | 3.5 | 4.3 | 0.01 | 0.33 | 0.00 | 91 | 1014.9 |
| 20260502223509 | 57 | 0.0 | 1.7 | 0.03 | 0.33 | 0.00 | 91 | 1014.7 | |
| 20260502222527 | 57 | 96 | 2.6 | 4.3 | 0.06 | 0.33 | 0.00 | 90 | 1014.8 |
| 20260502221547 | 57 | 0.0 | 1.7 | 0.11 | 0.33 | 0.00 | 90 | 1014.6 | |
| 20260502220505 | 58 | 0.0 | 0.9 | 0.17 | 0.33 | 0.00 | 89 | 1014.7 | |
| 20260502215524 | 58 | 24 | 0.9 | 3.5 | 0.32 | 0.33 | 0.34 | 88 | 1014.8 |
| 20260502214502 | 58 | 0.0 | 0.0 | 0.33 | 0.33 | 0.33 | 87 | 1015.1 | |
| 20260502213601 | 58 | 0.0 | 0.9 | 0.31 | 0.31 | 0.31 | 86 | 1015.2 | |
| 20260502212600 | 58 | 329 | 2.6 | 2.6 | 0.28 | 0.28 | 0.28 | 84 | 1015.9 |
| 20260502211559 | 59 | 41 | 1.7 | 3.5 | 0.22 | 0.22 | 0.22 | 82 | 1016.3 |
| 20260502210558 | 60 | 56 | 3.5 | 4.3 | 0.16 | 0.16 | 0.16 | 79 | 1016.5 |
| 20260502205556 | 63 | 26 | 4.3 | 7.8 | 0.01 | 0.01 | 0.01 | 73 | 1016.2 |
| 20260502204635 | 63 | 250 | 2.6 | 2.6 | 0.00 | 0.00 | 0.00 | 69 | 1015.5 |
| 20260502203553 | 62 | 0.0 | 0.0 | 0.00 | 0.00 | 0.00 | 69 | 1014.8 | |
| 20260502202552 | 62 | 24 | 0.9 | 0.9 | 0.00 | 0.00 | 0.00 | 68 | 1015.0 |
| 20260502201551 | 62 | 0.0 | 1.7 | 0.00 | 0.00 | 0.00 | 68 | 1014.9 | |
| 20260502200550 | 63 | 0.0 | 0.9 | 0.00 | 0.00 | 0.00 | 68 | 1015.1 | |
| 20260502195548 | 63 | 0.0 | 0.9 | 0.00 | 0.00 | 0.00 | 68 | 1015.3 | |
| 20260502194627 | 63 | 0.0 | 1.7 | 0.00 | 0.00 | 0.00 | 67 | 1015.4 | |
| 20260502193546 | 63 | 341 | 1.7 | 1.7 | 0.00 | 0.00 | 0.00 | 67 | 1015.3 |
| 20260502192544 | 63 | 0.0 | 0.9 | 0.00 | 0.00 | 0.00 | 66 | 1015.5 | |
| 20260502191543 | 64 | 324 | 1.7 | 1.7 | 0.00 | 0.00 | 0.00 | 66 | 1015.4 |
| 20260502190542 | 64 | 0.0 | 1.7 | 0.00 | 0.00 | 0.00 | 66 | 1015.6 | |
| 20260502185540 | 65 | 327 | 1.7 | 2.6 | 0.00 | 0.00 | 0.00 | 66 | 1015.5 |
| 20260502184539 | 65 | 334 | 0.9 | 0.9 | 0.00 | 0.00 | 0.00 | 66 | 1015.7 |
| 20260502183539 | 66 | 0.0 | 0.9 | 0.00 | 0.00 | 0.00 | 65 | 1015.8 | |
| 20260502182537 | 67 | 0.0 | 1.7 | 0.00 | 0.00 | 0.00 | 64 | 1015.5 | |
| 20260502181536 | 67 | 281 | 1.7 | 1.7 | 0.00 | 0.00 | 0.00 | 63 | 1015.8 |
| 20260502180534 | 68 | 0.0 | 0.9 | 0.00 | 0.00 | 0.00 | 63 | 1015.7 | |
| 20260502163523 | 72 | 314 | 3.5 | 5.2 | 0.00 | 0.00 | 0.00 | 57 | 1016.4 |
| 20260502162602 | 72 | 314 | 3.5 | 3.5 | 0.00 | 0.00 | 0.00 | 58 | 1016.6 |
| 20260502161521 | 72 | 345 | 3.5 | 3.5 | 0.00 | 0.00 | 0.00 | 58 | 1016.7 |
| 20260502160519 | 72 | 299 | 3.5 | 3.5 | 0.00 | 0.00 | 0.00 | 58 | 1016.6 |
| 20260502151513 | 73 | 286 | 3.5 | 3.5 | 0.00 | 0.00 | 0.00 | 59 | 1017.1 |
| 20260502150512 | 73 | 326 | 0.9 | 1.7 | 0.00 | 0.00 | 0.00 | 60 | 1017.6 |
| 20260502130557 | 76 | 0.0 | 2.6 | 0.00 | 0.00 | 0.00 | 59 | 1018.9 | |
| 20260502123553 | 77 | 356 | 0.9 | 1.7 | 0.00 | 0.00 | 0.00 | 58 | 1018.9 |
| 20260502122552 | 77 | 141 | 4.3 | 5.2 | 0.00 | 0.00 | 0.00 | 59 | 1019.1 |
| 20260502121550 | 77 | 33 | 2.6 | 2.6 | 0.00 | 0.00 | 0.00 | 59 | 1019.3 |
| 20260502120549 | 77 | 77 | 0.9 | 1.7 | 0.00 | 0.00 | 0.00 | 59 | 1019.2 |
| 20260502115548 | 77 | 147 | 4.3 | 7.8 | 0.00 | 0.00 | 0.00 | 59 | 1019.4 |
| 20260502114627 | 76 | 110 | 1.7 | 3.5 | 0.00 | 0.00 | 0.00 | 61 | 1019.5 |
| 20260502113546 | 76 | 170 | 4.3 | 4.3 | 0.00 | 0.00 | 0.00 | 60 | 1019.5 |
| 20260502112544 | 76 | 185 | 0.9 | 3.5 | 0.00 | 0.00 | 0.00 | 59 | 1019.6 |
| 20260502111543 | 75 | 8 | 3.5 | 3.5 | 0.00 | 0.00 | 0.00 | 61 | 1019.4 |
| 20260502110542 | 75 | 149 | 2.6 | 5.2 | 0.00 | 0.00 | 0.00 | 60 | 1019.8 |
| 20260502105540 | 75 | 172 | 3.5 | 4.3 | 0.00 | 0.00 | 0.00 | 61 | 1019.7 |
| 20260502104539 | 75 | 165 | 4.3 | 4.3 | 0.00 | 0.00 | 0.00 | 61 | 1019.8 |
| 20260502103538 | 75 | 353 | 2.6 | 2.6 | 0.00 | 0.00 | 0.00 | 61 | 1019.9 |
| 20260502102537 | 74 | 152 | 0.9 | 2.6 | 0.00 | 0.00 | 0.00 | 62 | 1019.9 |
| 20260502101536 | 73 | 7 | 0.9 | 2.6 | 0.00 | 0.00 | 0.00 | 63 | 1020.1 |
| 20260502100534 | 73 | 176 | 5.2 | 5.2 | 0.00 | 0.00 | 0.00 | 65 | 1020.0 |
| 20260502091528 | 68 | 102 | 1.7 | 1.7 | 0.00 | 0.00 | 0.00 | 70 | 1020.5 |
| 20260502090527 | 67 | 17 | 2.6 | 2.6 | 0.00 | 0.00 | 0.00 | 69 | 1020.5 |
| 20260502071514 | 58 | 163 | 2.6 | 2.6 | 0.00 | 0.00 | 0.00 | 71 | 1019.9 |
| 20260502070533 | 57 | 0.0 | 1.7 | 0.00 | 0.00 | 0.00 | 71 | 1020.0 | |
| 20260502065511 | 57 | 0.0 | 1.7 | 0.00 | 0.00 | 0.00 | 71 | 1020.0 | |
| 20260502064510 | 56 | 0.0 | 1.7 | 0.00 | 0.00 | 0.00 | 70 | 1019.9 | |
| 20260502063509 | 56 | 0.0 | 1.7 | 0.00 | 0.00 | 0.00 | 69 | 1019.9 | |
| 20260502062508 | 56 | 0.0 | 0.9 | 0.00 | 0.00 | 0.00 | 69 | 1020.2 | |
| 20260502061507 | 56 | 172 | 1.7 | 2.6 | 0.00 | 0.00 | 0.00 | 68 | 1020.5 |
| 20260502060505 | 55 | 137 | 1.7 | 2.6 | 0.00 | 0.00 | 0.00 | 68 | 1020.2 |
| 20260502055504 | 55 | 130 | 1.7 | 1.7 | 0.00 | 0.00 | 0.00 | 69 | 1020.4 |
| 20260502054503 | 55 | 0.0 | 0.0 | 0.00 | 0.00 | 0.00 | 69 | 1020.2 | |
| 20260502053542 | 54 | 181 | 1.7 | 2.6 | 0.00 | 0.00 | 0.00 | 69 | 1020.0 |
| 20260502052400 | 54 | 97 | 1.7 | 1.7 | 0.00 | 0.00 | 0.00 | 69 | 1020.0 |
| 20260502051359 | 53 | 0.0 | 0.9 | 0.00 | 0.00 | 0.00 | 69 | 1020.0 | |
| 20260502050458 | 53 | 207 | 1.7 | 2.6 | 0.00 | 0.00 | 0.00 | 69 | 1020.0 |
| 20260502045437 | 53 | 210 | 0.9 | 2.6 | 0.00 | 0.00 | 0.00 | 68 | 1020.2 |
| 20260502044356 | 54 | 66 | 1.7 | 1.7 | 0.00 | 0.00 | 0.00 | 67 | 1019.9 |
| 20260502043354 | 53 | 144 | 2.6 | 3.5 | 0.00 | 0.00 | 0.00 | 66 | 1020.0 |
| 20260502042353 | 53 | 67 | 1.7 | 2.6 | 0.00 | 0.00 | 0.00 | 66 | 1019.6 |
| 20260502041352 | 53 | 357 | 1.7 | 2.6 | 0.00 | 0.00 | 0.00 | 66 | 1019.6 |
| 20260502040350 | 53 | 17 | 1.7 | 1.7 | 0.00 | 0.00 | 0.00 | 65 | 1019.9 |
| 20260502035349 | 53 | 210 | 0.9 | 1.7 | 0.00 | 0.00 | 0.00 | 64 | 1019.7 |
| 20260502034348 | 53 | 121 | 1.7 | 1.7 | 0.00 | 0.00 | 0.00 | 64 | 1019.8 |
| 20260502033347 | 53 | 220 | 2.6 | 2.6 | 0.00 | 0.00 | 0.00 | 63 | 1019.9 |
| 20260502032345 | 53 | 140 | 0.9 | 1.7 | 0.00 | 0.00 | 0.00 | 63 | 1020.1 |
| 20260502031345 | 53 | 114 | 1.7 | 3.5 | 0.00 | 0.00 | 0.00 | 64 | 1020.3 |
| 20260502030343 | 52 | 79 | 1.7 | 4.3 | 0.00 | 0.00 | 0.00 | 63 | 1020.1 |
| 20260502025342 | 53 | 47 | 0.9 | 1.7 | 0.00 | 0.00 | 0.00 | 62 | 1020.2 |
| 20260502024341 | 53 | 54 | 1.7 | 1.7 | 0.00 | 0.00 | 0.00 | 61 | 1020.2 |
| 20260502023420 | 54 | 22 | 1.7 | 2.6 | 0.00 | 0.00 | 0.00 | 61 | 1020.3 |
| 20260502022419 | 54 | 182 | 1.7 | 1.7 | 0.00 | 0.00 | 0.00 | 60 | 1020.5 |